Location: Baix
(44.7118°N, 4.7648°E)
Time: 18:01:28
(UTC+00:00)

Cosmos 2227 Rocket - Pass Details

Date: 07 August 2020
Orbit: 840 x 844 km, 71.0° (Epoch: 23 September)

Event Time Altitude Azimuth Distance (km) Brightness Sun altitude
Exits shadow 03:15:07 10° 269° (W) 2,444 4.1 -12.8°
Maximum altitude 03:19:04 20° 314° (NW) 1,874 3.9 -12.2°
Drops below altitude 10° 03:23:08 10° 360° (N) 2,472 5.2 -11.7°
Sets 03:26:18 0° 17° (NNE) 3,410 6.3 -11.2°
